Preview of NWS' New Version of Forecast
This preview is not operational and should not be used for support decisions.

Regional Weather Roundup (RWR)

Issued by National Weather Service (NWS)

                            
000
ASUS46 KSEW 180610
RWRWA 

WASHINGTON REGIONAL WEATHER ROUNDUP
NATIONAL WEATHER SERVICE SEATTLE WA
1100 PM PDT TUE SEP 17 2019

NOTE:"FAIR" INDICATES FEW OR NO CLOUDS BELOW 12,000 FEET WITH NO 
SIGNIFICANT WEATHER AND/OR OBSTRUCTIONS TO VISIBILITY.

WAZ507-509-555>559-180700-
SEATTLE, TACOMA, EVERETT, AND VICINITY
  
CITY           SKY/WX    TMP DP  RH WIND       PRES   REMARKS
EVERETT        CLOUDY    56  53  90 E7        29.76S                  
6HR MIN TEMP:  55; 6HR MAX TEMP:  59; 6HR PCP:  0.03;                

BOEING FIELD   MOCLDY    58  53  84 SE6       29.75S                  
6HR MIN TEMP:  57; 6HR MAX TEMP:  62; 6HR PCP:  0.03;                

RENTON         CLOUDY    57  53  86 S3        29.75S                  
6HR MIN TEMP:  57; 6HR MAX TEMP:  62; 6HR PCP:  0.28;                

SEATAC AIRPORT MOCLDY    57  53  86 SE10      29.75S                  
6HR MIN TEMP:  57; 6HR MAX TEMP:  62; 6HR PCP:  0.24;                

JBLM-MCCHORD   NOT AVBL                                               
PUYALLUP       DRIZZLE   57  57 100 CALM      29.75F                  
BREMERTON      MOCLDY    54  53  97 CALM      29.76R                  
6HR MIN TEMP:  54; 6HR MAX TEMP:  58;                                

JBLM-FT LEWIS  NOT AVBL                                               
TACOMA NARROWS MOCLDY    54  53  97 CALM      29.75S                  
6HR MIN TEMP:  54; 6HR MAX TEMP:  61; 6HR PCP:  0.07;                

$$
 
WAZ001-503-506-510-514-515-180700-
NORTH INTERIOR
  
CITY           SKY/WX    TMP DP  RH WIND       PRES   REMARKS
BELLINGHAM     CLOUDY    56  53  90 NE3       29.75S                  
6HR MIN TEMP:  56; 6HR MAX TEMP:  63; 6HR PCP:  0.09;                

FRIDAY HARBOR  LGT RAIN  57  53  86 CALM      29.75R                  
6HR MIN TEMP:  54; 6HR MAX TEMP:  58; 6HR PCP:  0.01;                

EASTSOUND      CLOUDY    59  55  88 S5        29.73S                  
PORT ANGELES   LGT RAIN  54  54 100 SW3       29.75R                  
6HR MIN TEMP:  53; 6HR MAX TEMP:  58; 6HR PCP:  0.16;                

EDIZ HOOK      DRIZZLE   54  53  98 W7        29.73S                  
6HR MIN TEMP:  53; 6HR MAX TEMP:  58; 6HR PCP:  0.04;                

PORT TOWNSEND  CLOUDY    57  55  94 CALM      29.73S                  
NAS WHIDBEY    CLOUDY    62  52  69 SE13      29.78S                  
6HR MIN TEMP:  62; 6HR MAX TEMP:  65;                                

ARLINGTON      LGT RAIN  57  53  86 E7        29.77R                  
6HR MIN TEMP:  56; 6HR MAX TEMP:  59;                                

BURLINGTON     CLOUDY    55  55 100 E3        29.76S                  
$$
 
WAZ020-022-039-040-504-511-512-180700-
SOUTHWEST INTERIOR
  
CITY           SKY/WX    TMP DP  RH WIND       PRES   REMARKS
SHELTON        LGT RAIN  57  55  93 CALM      29.73R                  
6HR MIN TEMP:  57; 6HR MAX TEMP:  61; 6HR PCP:  0.11;                

OLYMPIA        CLOUDY    54  53  97 S3        29.75R                  
6HR MIN TEMP:  54; 6HR MAX TEMP:  59; 6HR PCP:  0.32;                

CHEHALIS       CLOUDY    55  55 100 CALM      29.75S                  
KELSO          CLOUDY    59  56  89 SE5       29.76R                  
6HR MIN TEMP:  59; 6HR MAX TEMP:  61; 6HR PCP:  0.01;                

VANCOUVER      CLOUDY    59  56  89 SE3       29.76S                  
6HR MIN TEMP:  59; 6HR MAX TEMP:  63; 6HR PCP:  0.19;                

SCAPPOOSE, OR  CLOUDY    57  55  93 CALM      29.76R                  
6HR MIN TEMP:  56; 6HR MAX TEMP:  61; 6HR PCP:  0.11;                

PORTLAND, OR   CLOUDY    60  56  86 SE6       29.77R                  
6HR MIN TEMP:  59; 6HR MAX TEMP:  64; 6HR PCP:  0.72;                

$$
 
WAZ021-516-517-180700-
WASHINGTON COAST
  
CITY           SKY/WX    TMP DP  RH WIND       PRES   REMARKS
FORKS          MOCLDY    52  52 100 NE3       29.72S                  
6HR MIN TEMP:  51; 6HR MAX TEMP:  60; 6HR PCP:  0.19;                

HOQUIAM        CLOUDY    57  56  96 NE3       29.74R                  
6HR MIN TEMP:  57; 6HR MAX TEMP:  63; 6HR PCP:  0.10;                

ASTORIA, OR    HVY RAIN  57  56  96 CALM      29.73R FOG              
6HR MIN TEMP:  57; 6HR MAX TEMP:  60; 6HR PCP:  0.29;                

$$
 
WAZ019-023-024-040-567>569-180700-
CASCADE MOUNTAINS AND COLUMBIA GORGE
  
CITY           SKY/WX    TMP DP  RH WIND       PRES   REMARKS
STAMPEDE PASS  NOT AVBL                                               
TROUTDALE, OR  CLOUDY    59  56  89 E3        29.77S                  
6HR MIN TEMP:  58; 6HR MAX TEMP:  63; 6HR PCP:  0.10;                

HOOD RIVER, OR CLOUDY    55  54  94 CALM      29.79S                  
THE DALLES, OR LGT RAIN  58  56  93 CALM      29.77S                  
6HR MIN TEMP:  58; 6HR MAX TEMP:  69; 6HR PCP:  0.10;                

$$

WAZ026-027-041>044-520-521-180700-
EAST SLOPES
  
CITY           SKY/WX    TMP DP  RH WIND       PRES   REMARKS
OMAK           CLOUDY    53  49  86 N6        29.83S                  
6HR MIN TEMP:  53; 6HR MAX TEMP:  57; 6HR PCP:  0.14;                

WENATCHEE      CLOUDY    54  51  90 NW7       29.77S                  
6HR MIN TEMP:  53; 6HR MAX TEMP:  59; 6HR PCP: TRACE;                

ELLENSBURG     CLOUDY    57  48  72 E3        29.78R                  
6HR MIN TEMP:  56; 6HR MAX TEMP:  62;                                

YAKIMA         LGT RAIN  56  52  86 NW7       29.78R                  
6HR MIN TEMP:  54; 6HR MAX TEMP:  64; 6HR PCP:  0.01;                

SUNNYSIDE ARPT DRIZZLE   55  53  92 NW5       29.77F                  
6HR MIN TEMP:  54; 6HR MAX TEMP:  67;                                

YAKIMA TC      NOT AVBL                                               
$$

WAZ028-034-035-180700-
COLUMBIA BASIN
  
CITY           SKY/WX    TMP DP  RH WIND       PRES   REMARKS
EPHRATA        MOCLDY    52  47  83 N6        29.78S                  
6HR MIN TEMP:  52; 6HR MAX TEMP:  63; 6HR PCP: TRACE;                

MOSES LAKE     PTCLDY    57  47  69 MISG      29.79S                  
6HR MIN TEMP:  55; 6HR MAX TEMP:  63; 6HR PCP:  0.01;                

PASCO          MOCLDY    63  46  54 E7        29.77F                  
6HR MIN TEMP:  62; 6HR MAX TEMP:  71;                                

RICHLAND ARPT  CLOUDY    61  48  62 E5        29.77S                  
6HR MIN TEMP:  58; 6HR MAX TEMP:  71;                                

HERMISTON, OR  CLEAR     55  46  71 CALM      29.76S                  
6HR MIN TEMP:  54; 6HR MAX TEMP:  70;                                

$$

WAZ036>038-180700-
NORTHEAST WASHINGTON
  
CITY           SKY/WX    TMP DP  RH WIND       PRES   REMARKS
SPOKANE GEIGER CLOUDY    54  45  71 N5        29.85F                  
6HR MIN TEMP:  54; 6HR MAX TEMP:  63; 6HR PCP: TRACE;                

SPOKANE FELTS  CLOUDY    58  44  60 VRB3      29.85S                  
6HR MIN TEMP:  58; 6HR MAX TEMP:  67; 6HR PCP: TRACE;                

FAIRCHILD AFB  NOT AVBL                                               
COEURDALENE,ID CLOUDY    56  42  59 NE5       29.86R                  
6HR MIN TEMP:  55; 6HR MAX TEMP:  64;                                

DEER PARK      CLOUDY    52  48  86 N6        29.86F                  
6HR MIN TEMP:  52; 6HR MAX TEMP:  62; 6HR PCP: TRACE;                

$$

WAZ029>033-180700-
SOUTHEAST WASHINGTON
  
CITY           SKY/WX    TMP DP  RH WIND       PRES   REMARKS
PULLMAN        CLOUDY    57  40  52 NE3       29.85F                  
6HR MIN TEMP:  56; 6HR MAX TEMP:  66;                                

LEWISTON, ID   CLOUDY    66  38  35 VRB6      29.81S                  
6HR MIN TEMP:  65; 6HR MAX TEMP:  73;                                

WALLA WALLA    PTCLDY    63  43  48 S7        29.78F                  
6HR MIN TEMP:  61; 6HR MAX TEMP:  67; 6HR PCP: TRACE;                

PENDLETON, OR  PTCLDY    58  43  57 SW6       29.78S                  
6HR MIN TEMP:  58; 6HR MAX TEMP:  66; 6HR PCP: TRACE;                

$$